Regional Weather Roundup
Issued by NWS San Angelo, TX

Home | Current Version | Previous Version | Text Only | Print | Product List | Glossary On
Versions: 1 2 3 4 5 6 7 8 9 10 11 12 13 14 15 16 17 18 19 20 21 22 23 24 25 26 27 28 29 30 31 32 33 34 35 36 37 38 39 40 41 42 43 44 45 46 47 48 49 50
000
ASUS44 KSJT 071010
RWRSJT
WEST CENTRAL TEXAS REGIONAL WEATHER ROUNDUP
NATIONAL WEATHER SERVICE SAN ANGELO TX
500 AM CDT TUE JUL 07 2015

NOTE: "FAIR" INDICATES FEW OR NO CLOUDS BELOW 12,000 FEET WITH NO
SIGNIFICANT WEATHER AND/OR OBSTRUCTIONS TO VISIBILITY.

TXZ049-054-064>066-071>073-076>078-098-099-113-114-127-128-139-140-
154-155-168>170-071100
...LOCATIONS ACROSS WEST CENTRAL TEXAS...

CITY           SKY/WX    TMP DP  RH WIND       PRES   REMARKS
SAN ANGELO     CLOUDY    80  70  71 S10       29.95R
ABILENE        TSTM      73  72  96 E6        29.96F
DYESS AFB      CLOUDY    73  72  94 E6        29.93F
JUNCTION       CLOUDY    79  71  76 S7        29.96S
SWEETWATER     CLOUDY    72  72 100 NW18G26   30.04R THUNDER
BROWNWOOD      CLOUDY    77  72  83 S12       29.96S
COLEMAN        CLOUDY    77  72  82 S12       29.96R
SONORA         CLOUDY    77  72  83 S12G18    30.00F
OZONA          CLOUDY    77  68  73 S14       30.01R
BRADY          NOT AVBL
$$

TEXAS PANHANDLE/OKLAHOMA PANHANDLE

CITY           SKY/WX    TMP DP  RH WIND       PRES   REMARKS
AMARILLO       LGT RAIN  65  62  90 NE16      30.10S FOG
BORGER         LGT RAIN  66  65  96 NE8       30.09R FOG
CANADIAN       CLOUDY    67  66  96 NE10      30.04S
DALHART        CLOUDY    65  56  72 NE13      30.17S HAZE
DUMAS          CLOUDY    64  60  87 N12G20    30.12S FOG
GUYMON         NOT AVBL
HEREFORD       CLOUDY    65  64  97 MISG      30.12R
PAMPA          CLOUDY    64  63  94 NE17G23   30.08R FOG
PERRYTON         N/A     65  60  83 NE20G26   30.09R
$$

SOUTHERN PANHANDLE/SOUTH PLAINS/ROLLING PLAINS

CITY           SKY/WX    TMP DP  RH WIND       PRES   REMARKS
LUBBOCK        LGT RAIN  68  67  96 E8        30.03S
SNYDER         HVY RAIN  68  67  98 N10       30.00F
CHILDRESS      LGT RAIN  72  70  93 N7        29.99S
SEMINOLE       RAIN      70  69  97 NE7       30.03R
$$

PERMIAN BASIN

CITY           SKY/WX    TMP DP  RH WIND       PRES   REMARKS
MIDLAND        LGT RAIN  74  70  87 SE9       29.98F
ODESSA         CLOUDY    72  67  84 SE10      29.98F
WINK           CLOUDY    73  68  84 NW8       29.97S
$$

FAR WEST/SOUTHWEST MOUNTAINS/TRANS PECOS

CITY           SKY/WX    TMP DP  RH WIND       PRES   REMARKS
ALPINE         MOSUNNY   65  62  90 S5        30.14S
DRYDEN           N/A     76  72  87 NW8       29.97R
EL PASO        PTCLDY    76  61  59 N8        30.05R
FORT STOCKTON  LGT RAIN  71  69  93 SW5       30.00R
GUADALUPE PASS LGT RAIN  64  64 100 E23       30.15S VSB 3/4
MARFA          MOCLDY   N/A N/A N/A N5        30.12S
PECOS          CLOUDY    75  66  72 NW13      29.97F
$$

DALLAS/FORT WORTH METROPLEX

CITY           SKY/WX    TMP DP  RH WIND       PRES   REMARKS
DFW AIRPORT    CLOUDY    80  73  79 S14G25    29.94R
FTW MEACHAM    CLOUDY    80  73  79 S13G22    29.93S
DAL-EXECUTIVE  CLOUDY    78  72  81 S12G21    29.94S
GRAND PRAIRIE  CLOUDY    79  73  83 S13G20    29.96R
ADDISON        CLOUDY    80  74  82 S8        29.98R
MESQUITE       CLOUDY    78  74  86 S16       29.96R
LANCASTER      CLOUDY    78  72  81 S13G23    29.97R
$$

NORTH CENTRAL TEXAS

CITY           SKY/WX    TMP DP  RH WIND       PRES   REMARKS
SHRMAN/DENISON CLOUDY    77  75  92 S12       29.96S
GAINESVILLE    CLOUDY    77  72  83 S8        29.96S
BRIDGEPORT     CLOUDY    78  72  80 S5        29.95S
DENTON         CLOUDY    78  73  84 S10       29.94S
WAXAHACHIE     CLOUDY    77  73  88 S12G18    29.98S
GRANBURY         N/A     80  72  76 S9        29.96R
$$

WESTERN NORTH TEXAS

CITY           SKY/WX    TMP DP  RH WIND       PRES   REMARKS
WICHITA FALLS  CLOUDY    76  70  82 S8        29.91R
VERNON         CLOUDY    76  62  60 W7        29.95R
BRECKENRIDGE   CLOUDY    76  74  91 S6        29.94S
COMANCHE       CLOUDY    76  72  86 S15       29.95S
$$

CENTRAL AND SOUTH CENTRAL TEXAS

CITY           SKY/WX    TMP DP  RH WIND       PRES   REMARKS
AUSTIN/BERGSTM CLOUDY    78  75  90 S13       29.97S
WACO           CLOUDY    79  73  82 S14       29.97F
HILLSBORO      CLOUDY    77  71  83 SE15      29.97S
TEMPLE         CLOUDY    77  72  83 S14       29.97R
KILLEEN-GRAY   CLOUDY    77  73  85 S13       29.97R
FORT HOOD      CLOUDY    77  73  88 S14       29.96S HAZE
GEORGETOWN     CLOUDY    81  72  74 S10G20    29.96F
LAGO VISTA     CLOUDY    78  73  84 S9G16     30.00R
SAN MARCOS     CLOUDY    79  73  83 S9        29.98S
NEW BRAUNFELS  CLOUDY    78  75  90 S12       29.96S
RANDOLPH AFB   CLOUDY    77  75  94 S12       29.97F
SAN ANTONIO    CLOUDY    79  73  82 S15       29.97F
STINSON        CLOUDY    78  75  90 SE12      29.94F
PLEASANTON     NOT AVBL
LA GRANGE      CLOUDY    81  79  94 S8        29.96S FOG
GIDDINGS       CLOUDY    79  76  90 S10       30.02S
$$

EAST TEXAS

CITY           SKY/WX    TMP DP  RH WIND       PRES   REMARKS
PARIS          CLOUDY    75  72  88 S12       29.97S
CLARKSVILLE    NOT AVBL
TYLER          CLOUDY    77  73  87 S12       30.00S
LONGVIEW       MOCLDY    78  74  87 S7        30.00S
PALESTINE      PTSUNNY   77  74  91 SE5       30.01S
NACOGDOCHES    CLOUDY   N/A N/A N/A SE3       30.01S
$$

TEXAS HILL COUNTRY AND EDWARDS PLATEAU

CITY           SKY/WX    TMP DP  RH WIND       PRES   REMARKS
LLANO          CLOUDY    81  72  74 S9        30.00S
HORSESHOE BAY  PTSUNNY   78  72  80 S10G17    29.97F
KERRVILLE      CLOUDY    76  73  88 S13       29.99S
FREDERICKSBRG  CLOUDY    75  69  80 S9G18     29.99S
ROCKSPRINGS    CLOUDY    75  72  88 SE14G21   30.00F
HONDO          CLOUDY    77  73  87 SE15      29.97S
UVALDE         CLOUDY    75  73  93 SE8       29.95S
DEL RIO        MOCLDY    79  71  76 SE12      29.90S
$$

SOUTHEAST TEXAS

CITY           SKY/WX    TMP DP  RH WIND       PRES   REMARKS
COLLEGE STN    CLOUDY    79  76  90 S13       29.98S
CALDWELL       CLOUDY    79  79 100 SE10      30.01S
CROCKETT       PTSUNNY   77  77 100 SE3       30.04R
BRENHAM        CLOUDY    79  78  97 SE7       30.00R FOG
HUNTSVILLE     MOCLDY    79  76  90 S7        30.00F
CONROE         CLOUDY    76  74  93 SE3       30.01F
HOUSTON BUSH   MOCLDY    81  78  91 S8        30.00F
HOUSTON HOBBY  MOCLDY    81  78  91 S6        29.99F
PERLAND        MOCLDY    82  78  88 S6        30.01F
WHARTON        PTSUNNY   78  77  96 SE9       29.99F FOG
$$

THE UPPER TEXAS COAST

CITY           SKY/WX    TMP DP  RH WIND       PRES   REMARKS
ORANGE         MOSUNNY   80  80 100 CALM      30.05F
PORT ARTHUR    PTCLDY    79  77  94 SE7       30.02F
GALVESTON      PTCLDY    83  80  91 S14       30.02F
ANGLETON       MOCLDY    82  78  88 S12       30.00F
BAY CITY       PTSUNNY   82  80  95 SE7       29.99F
$$

TEXAS COASTAL BEND, RIO GRANDE PLAINS DEEP SOUTH TEXAS

CITY           SKY/WX    TMP DP  RH WIND       PRES   REMARKS
VICTORIA       MOCLDY    80  79  96 S13       29.98S FOG
BEEVILLE       FAIR     N/A N/A N/A SE12      29.96S
ROCKPORT       LGT RAIN  82  78  88 S10G20    29.96F
PORT ARANSAS   CLOUDY    80  79  95 S10       29.97F
PORT LAVACA    PTSUNNY   81  79  94 S8        29.97F
CORPUS CHRISTI MOCLDY    81  78  91 S12       29.96F
KINGSVILLE NAS CLEAR     80  79  96 SE12      29.95F
COTULLA        MOCLDY    78  73  84 SE9       29.92F
LAREDO         MOCLDY    79  70  74 SE13      29.92F
BROWNSVILLE    CLEAR     79  77  94 SE8       29.97F
PORT ISABEL    CLEAR     79  77  94 SE9       29.96F FOG
HEBBRONVILLE     N/A     75  73  93 SE9       29.95F
MCALLEN        PTCLDY    81  76  84 SE14      29.95F
WESLACO        PTCLDY    78  75  90 SE10      29.95F
FALFURRIAS     SUNNY     78  76  92 SE8       29.94F
EDINBURG       MOSUNNY   80  76  87 SE8       29.95S
$$


USA.gov is the U.S. government's official web portal to all federal, state and local government web resources and services.